Preview of NWS' New Version of Forecast
This preview is not operational and should not be used for support decisions.
Latest weather observations around

Fairfield / Travis Air Force Base (KSUU)

Using English Units (Switch to International System of Units)
Date/ Time (PST) Wind (mph) Vis. (mi) Weather Sky Cond. Temp (°F) Rel. Humidity Wind Chill (°F) Heat Index (°F) Pressure Precip. (in)
Air Dwpt 6 hour Altimeter (inHg) Sea level (inHg) 1 hr 3 hr 6 hr
Max Min
Notice The following observation data may not be complete
Feb 19 18:58 WNW 5 10 Clear CLR   25      %     30.04 30.06      
Feb 19 17:58 Calm 10 Clear CLR 43 28     56%     30.02 30.04      
Feb 19 16:58 Calm 10 Clear CLR 47 26     43%     30 30.02      
Feb 19 15:58 W 6 10 Mostly Cloudy BKN080 BKN090 51 26     37%     30 30.02      
Feb 19 14:58 WSW 7 10 Partly Cloudy SCT070 53 24     32%     29.99 30.01      
Feb 19 13:58 S 7 10 Clear CLR 52 23     31%     29.99 30.01      
Feb 19 12:58 N 8 10 Mostly Cloudy SCT065 BKN080 52 23     32%     30.01 30.03      
Feb 19 11:58 N 9 10 Clear CLR 50 23     34%     30.02 30.04      
Feb 19 10:58 N 8 10 Clear CLR 49 24     37% 46   30.02 30.04      
Feb 19 09:58 NW 6 10 Clear CLR 46 28     49% 43   30.01 30.03      
Feb 19 08:58 Calm 10 Clear CLR 42 27     54%     30 30.02      
Feb 19 07:58 Calm 10 Clear CLR 35 29     80%     29.98 30      
Feb 19 06:58 W 6 10 Clear CLR 34 26     74% 28   29.94 29.96      
Feb 19 05:58 W 6 10 Mostly Clear FEW140 36 27     69% 31   29.91 29.93      
Feb 19 04:58 W 9 10 Partly Cloudy SCT150 36 27     68% 29   29.9 29.92      
Feb 19 03:58 W 11 10 Mostly Clear FEW110 37 27     67% 30   29.9        
Feb 19 02:58 W 11 10 Clear CLR 38 27     63% 31   29.92 29.94      
Feb 19 01:58 WSW 10 10 Clear CLR 38 26     62% 31   29.92 29.94      
Feb 19 00:58 W 6 10 Clear CLR 40 26     58% 36   29.91 29.93      
Feb 18 23:58 W 8 10 Clear CLR 42 25     52% 37   29.92 29.94      
Feb 18 22:58 W 6 10 Clear CLR 41 26     56% 37   29.92 29.94      
Feb 18 21:58 W 14 10 Clear CLR 42 26     54% 35   29.91 29.93      
Feb 18 20:58 Calm 10 Clear CLR 40 28     62%     29.9 29.92      
Feb 18 19:58 W 13 10 Clear CLR 44 29     54% 38   29.89 29.91      
Feb 18 18:58 WNW 10 10 Clear CLR 47 28     48% 42   29.89 29.91      
Feb 18 17:58 W 22 10 Clear and Windy CLR 48 30     49% 41   29.87 29.89      
Feb 18 16:58 WNW 17 10 Mostly Clear FEW080 51 32     47%     29.88 29.9      
Feb 18 15:56   10 Mostly Clear FEW070 57 30     36%     29.88 29.9      
Feb 18 14:58   10 Mostly Clear FEW065 58 31     36%     29.88 29.9      
Feb 18 13:58 W 17 10 Mostly Clear FEW065 58 33     40%     29.9 29.92      
Feb 18 12:58 W 24 10 Clear and Windy CLR 59 35     40%     29.9 29.92      
Feb 18 11:58 W 18 10 Clear CLR 59 36     42%     29.92 29.94      
Feb 18 10:58 W 16 10 Clear CLR 57 40     54%     29.96 29.98      
Feb 18 09:58 W 14 10 Clear CLR 55 42     61%     29.96 29.98      
Feb 18 09:05 W 15 10 Clear CLR 52 45     76%     29.96 29.98      
Feb 18 08:58 WSW 15 10 Clear CLR 52 44     75%     29.96 29.98      
Feb 18 07:58 SW 14 10 Mostly Clear FEW020 48 46     92% 42   29.96 29.98      
Feb 18 06:58 WSW 18 10 Clear CLR 47 46     96% 40   29.92 29.94      
Feb 18 05:58 W 18 10 Cloudy OVC220 48 47     96% 41   29.93 29.95      
Feb 18 04:58   10 Partly Cloudy SCT210 48 47     97%     29.91 29.93      
Feb 18 03:58 WSW 22 10 Clear and Windy CLR 47 46     97% 40   29.9 29.92      
Feb 18 02:58 WSW 21 10 Clear and Windy CLR 48 47     97% 41   29.93 29.95      
Feb 18 01:58   10 Clear CLR 49 48     97%     29.93 29.95      
Feb 18 00:58 WSW 13 10 Clear CLR 50 49     96% 45   29.95 29.97      
Feb 17 23:58   10 Clear CLR 51 49     96%     29.94 29.96      
Feb 17 22:58 SW 14 10 Cloudy OVC110 52 51     96%     29.96 29.98      
Feb 17 21:58 SW 10 10 Mostly Cloudy BKN110 53 49     85%     29.98 30      
Feb 17 20:58 WSW 14 10 Clear CLR 53 47     79%     29.97 29.99      
Feb 17 19:58 SW 10 10 Clear CLR 53 44     70%     29.99 30.01      
Feb 17 18:58 SW 10 10 Clear CLR 54 42     65%     30.01 30.03      
Feb 17 17:58 SSW 9 10 Clear CLR 60 44     56%     30 30.02      
Feb 17 16:58 S 6 10 Clear CLR 67 44     43%     30.01 30.03      
Feb 17 15:58 SSW 5 10 Clear CLR 69 41     37%     30.04 30.06      
Feb 17 12:58 Calm 10 Clear CLR 66 39     37%     30.11 30.13      
Feb 17 11:58 Calm 10 Clear CLR 63 40     42%     30.14 30.16      
Feb 17 10:58 NNE 5 10 Clear CLR 60 38     44%     30.16 30.18      
Feb 17 09:58 Calm 10 Clear CLR 58 38     48%     30.17 30.19      
Feb 17 08:58 W 5 10 Clear CLR 49 41     72% 48   30.17 30.19      
Feb 17 07:58 WNW 3 10 Clear CLR 38 38     97% 36   30.16 30.18      
Feb 17 06:58 E 6 10 Clear CLR 32 31     97% 27   30.14 30.16      
Feb 17 05:58 Calm 10 Clear CLR 35 34     96%     30.14 30.16      
Feb 17 04:58 S 5 10 Clear CLR 32 32     97% 28   30.14 30.16      
Feb 17 03:58 Calm 10 Clear CLR 33 32     97%     30.15 30.17     0
Feb 17 02:58 ENE 3 10 Clear CLR 36 35     96% 33   30.16 30.18 0    
Feb 17 01:58 W 3 10 Clear CLR 37 35     90% 35   30.16 30.18      
Feb 17 00:58 SW 7 10 Clear CLR 41 35     78% 36   30.17 30.19      
Feb 16 23:58 W 5 10 Clear CLR 40 36     87% 36   30.16 30.18      
Feb 16 22:58 W 6 10 Clear CLR 40 37     90% 36   30.16 30.18      
Feb 16 21:58 Calm 10 Clear CLR 41 34     75%     30.16 30.18      
Feb 16 20:58 Calm 10 Clear CLR 47 33     58%     30.16 30.18      
Feb 16 19:58 Calm 10 Clear CLR 43 32     63%     30.15 30.17      
Feb 16 18:58 SSW 3 10 Clear CLR 49 31     51% 48   30.14 30.16      
Jun 11 20:58 WSW 8 10 Clear   53 48     81%     29.93 29.95      
Jun 11 17:58 WNW 6 5 Rain OVC060 53 48     81%     29.95   0    
Jun 11 14:58 WSW 16 10 Clear CLR 71 41     34%   69 29.87 29.89      
Jun 10 19:58   10 Clear   63 45     52%     29.86 29.88      
Jun 10 17:58 WSW 21 8 Clear and Windy CLR 70 46     43%     29.85 29.87      
Jun 10 15:58 WSW 22 10 Clear and Windy CLR 73 45     37%   72 29.86 29.88      
Jun 10 13:32 W 16 10 Mostly Clear FEW055 73 45     36%   72 29.89 29.91      
Jun 10 12:03   10 Clear CLR 73 39     29%   72 29.91 29.93      
Jun 09 22:58 SW 11 10 Clear CLR 55 48     77%     29.92 29.94      
Notice The following observation data may not be complete
Jun 09 16:58   10 Clear CLR          %              
Jun 09 15:58 SW 16 10 Clear CLR 72 47     41%   71 29.89 29.91      
Jun 08 11:58 ESE 6 10 Cloudy BKN028 OVC033 65 52     62%     30.02 30.04 0    
Jun 08 11:17 Calm 10 Cloudy OVC028 61 52     72%     30.02 30.04      
Notice The following observation data may not be complete
Jun 08 11:06   9 Light Rain OVC028          %              
Jun 08 10:58 Calm 7 Light Drizzle OVC028 60 51     73%     30.01 30.03 0   0
Jun 07 12:58   10 Mostly Cloudy FEW080 SCT150 BKN180 BKN210 71 52     52%   70 29.84 29.86      
Notice The following observation data may not be complete
Jun 07 05:58   10 Clear CLR          %              
Jun 06 11:58 WSW 16 10 Clear CLR 75 52     44%   75 29.86 29.88      
Jun 06 10:58 SW 17 10 Clear CLR 71 52     50%   70 29.87 29.89      
Jun 06 01:58   10 Clear CLR 58 50     76%     29.82 29.84      
Jun 05 12:58 SSW 6 10 Clear CLR 84 51     32%   82 29.85 29.87